OBJECT AG, 59128

Orbit data source: Space-Track

You're viewing an Uncataloged Satellite

Recently launched and/or uncataloged satellites may have evolving metadata. Metadata may include but not limited to: Owner, Maufacturer, Bus, Motor, and Mission.

OBJECT AG, 59128 is a satellite in SSO that was launched on Mon, 04 Mar 2024 UTC via an FALCON 9 launch vehicle from the Air Force Western Test Range (AFWTR). Unknown objects in Earth's orbit typically refer to objects detected orbiting the Earth but have not yet been identified or cataloged. These objects could be anything from previously untracked satellites, spent rocket stages, debris from satellite collisions, or even natural meteoroids temporarily captured by Earth's gravity.

Loading next visibility...
Identifier
59128, 2024-043AG
Orbit
SSO
Country
Flag of TBDTBD
Related business
None
Manufacturer
Unknown
Mission
Operational Commercial Technology
Bus & Motor
Unknown
Mass
Unknown
Launch date (UTC)
2024-03-04 (2 years ago)
Launch vehicle
FALCON 9
Launch site
Air Force Western Test Range (AFWTR)
Object type
Unknown
Shape & HBR
Cyl + 1 Pan, 0.8 m
Radar Cross Section
2.062 m², Large (>1 m²)

Expand to show TLE details & history
Last TLE update: 14 hours ago

TLE from 14 hours ago
0 OBJECT AG
1 59128U 24043AG  26126.36738082  .00006054  00000-0  20052-3 0  9999
2 59128  97.5588 264.2081 0010552  35.8879 324.3068 15.31639636120715
Epoch: 2026-05-06T08:49Z
TLE epoch observation values (Epoch: 2026-05-06T08:49:01.702Z)
Latitude
-0.00013°
Longitude
-92.27786°
Altitude
468.153 km
Speed
7.635 km/s
True Right ascension
17h 36m 49s
True Declination
0° 00' 00"
Sunlit
Object was in full shadow at epoch
Visualization orbit readout
Latitude
Unknown
Longitude
Unknown
Altitude
Unknown
Speed
Unknown
Apparent Right ascension
Unknown
Apparent Declination
Unknown
Sunlit
N/A
Visualization observer readout
Local Sidereal Time
06:44:44
Azimuth
Unknown
Elevation
Unknown
Doppler factor
Unknown
Orbital elements
Apogee altitude
475.101 km
Perigee altitude
460.653 km
Semi-major axis
6,846.014 km
Eccentricity
0.00106
Inclination
97.5588°
RAAN
264.2081°
Arg. of periapsis
35.8879°
True anomaly
324.23618°
Mean anomaly
324.3068°
Eccentric anomaly
324.2715°
Mean motion
3.83166 °/min
Orbital period
93.95 mins
BSTAR
0.00020052
Loading maneuver chart data...
Computing Atmospheric mass density...
Loading historical data...
Loading historical data...
Loading historical data...
Loading historical data...
Loading historical data...
Loading historical data...
Loading historical data...

Documentation

Showing up to 5 results
|